STARLINK-32871, 62924

Orbit data source: Space-Track

STARLINK-32871, 62924 is a payload satellite owned by SpaceX/Seattle (US) in LEO that was launched on Sat, 08 Feb 2025 UTC via an FALCON 9 launch vehicle from the Air Force Eastern Test Range (AFETR). Payload-class satellites include a variety of spacecraft equipped with specific instruments for various scientific and technological missions. These include communications satellites like Starlink; space stations such as the ISS; scientific satellites like the Hubble; Earth observation satellites from companies like Planet Labs, Umbra, and HawkEye 360; GPS; miniature CubeSats for education and research; and military/defense satellites.

Loading next visibility...
Identifier
62924, 2025-027T
Orbit
LEO
Country
Flag of USUS
Related business
Manufacturer
SpaceX/Seattle
Mission
Operational Commercial Communications
Bus & Motor
STARLINK V2M, Unknown motor
Mass
730 kg wet, ~700 kg dry
Launch date (UTC)
2025-02-08 (1 year ago)
Launch vehicle
FALCON 9
Launch site
Air Force Eastern Test Range (AFETR)
Object type
Payload
Rocket body
Debris
Shape & HBR
Box + 2 Pan, 17.7 m
Radar Cross Section
33.884 m², Large (>1 m²)

Expand to show TLE details & history
Last TLE update: 10 hours ago

TLE from 10 hours ago
0 STARLINK-32871
1 62924U 25027T   26124.40789756  .00023575  00000-0  86345-3 0  9991
2 62924  42.9968 174.1974 0001357 272.0635  88.0061 15.27580590 70065
Epoch: 2026-05-04T09:47Z
TLE epoch observation values (Epoch: 2026-05-04T09:47:22.349Z)
Latitude
-0.00002°
Longitude
165.05673°
Altitude
482.79 km
Speed
7.626 km/s
True Right ascension
11h 36m 47s
True Declination
0° 00' 00"
Sunlit
Object was in full shadow at epoch
Visualization orbit readout
Latitude
Unknown
Longitude
Unknown
Altitude
Unknown
Speed
Unknown
Apparent Right ascension
Unknown
Apparent Declination
Unknown
Sunlit
N/A
Visualization observer readout
Local Sidereal Time
03:13:13
Azimuth
Unknown
Elevation
Unknown
Doppler factor
Unknown
Orbital elements
Apogee altitude
485.924 km
Perigee altitude
484.062 km
Semi-major axis
6,863.13 km
Eccentricity
0.00014
Inclination
42.9968°
RAAN
174.1974°
Arg. of periapsis
272.0635°
True anomaly
88.02164°
Mean anomaly
88.0061°
Eccentric anomaly
88.01387°
Mean motion
3.81733 °/min
Orbital period
94.31 mins
BSTAR
0.00086345
Loading maneuver chart data...
Computing Atmospheric mass density...
Loading historical data...
Loading historical data...
Loading historical data...
Loading historical data...
Loading historical data...
Loading historical data...
Loading historical data...

Documentation

Showing up to 5 results
|